STARLINK-35987

Last updated on Mon Dec 15 2025 00:02:12 GMT+0000 (Coordinated Universal Time)

1 66860U 25281N 25348.25003472 -.01276997 00000+0 -53084-2 0 9993 2 66860 43.0006 112.9290 0001701 263.0245 301.5619 15.87322925 1646
UTC large
Height (km)
Speed (km/s)
/
Latitude / Longitude
Inclination (degrees)
Orbital Period (minutes)
Azimuth
Elevation
Range (km)
Doppler Factor

Next 0 passes for location: London (51.5072 / 0.1276)

Sorry there are no passes over London.